TimeCDT,TemperatureF,Dew PointF,Humidity,Sea Level PressureIn,VisibilityMPH,Wind Direction,Wind SpeedMPH,Gust SpeedMPH,PrecipitationIn,Events,Conditions,WindDirDegrees,DateUTC
12:54 AM,69.1,64.9,87,29.96,8.0,ESE,5.8,-,N/A,,Overcast,110,2013-09-09 05:54:00
1:54 AM,68.0,64.9,90,29.94,6.0,ESE,5.8,-,N/A,,Mostly Cloudy,120,2013-09-09 06:54:00
2:54 AM,68.0,64.9,90,29.94,6.0,SE,4.6,-,N/A,,Partly Cloudy,140,2013-09-09 07:54:00
3:54 AM,68.0,66.0,93,29.92,5.0,SE,3.5,-,N/A,,Scattered Clouds,130,2013-09-09 08:54:00
4:54 AM,68.0,66.0,93,29.91,4.0,SSE,6.9,-,N/A,,Mostly Cloudy,150,2013-09-09 09:54:00
5:54 AM,68.0,66.0,93,29.90,3.0,SSE,6.9,-,N/A,,Scattered Clouds,150,2013-09-09 10:54:00
6:17 AM,68.0,66.2,94,29.91,2.0,SSE,5.8,-,N/A,,Scattered Clouds,160,2013-09-09 11:17:00
6:28 AM,68.0,66.2,94,29.91,2.5,South,4.6,-,N/A,,Mostly Cloudy,170,2013-09-09 11:28:00
6:54 AM,68.0,66.0,93,29.91,2.0,SSE,6.9,-,N/A,,Overcast,160,2013-09-09 11:54:00
7:08 AM,69.8,66.2,88,29.92,2.0,SSE,6.9,-,N/A,,Overcast,160,2013-09-09 12:08:00
7:18 AM,69.8,66.2,88,29.92,1.5,SSE,6.9,-,N/A,,Overcast,150,2013-09-09 12:18:00
7:54 AM,70.0,68.0,93,29.92,2.0,SSE,4.6,-,N/A,,Overcast,160,2013-09-09 12:54:00
8:38 AM,71.6,69.8,94,29.92,2.0,SSE,8.1,-,N/A,,Overcast,160,2013-09-09 13:38:00
8:54 AM,73.0,69.1,87,29.90,2.0,SSE,8.1,-,N/A,,Overcast,160,2013-09-09 13:54:00
9:33 AM,77.0,69.8,78,29.91,5.0,South,6.9,-,N/A,,Haze,170,2013-09-09 14:33:00
9:41 AM,77.0,71.6,83,29.90,5.0,South,10.4,-,N/A,,Haze,170,2013-09-09 14:41:00
9:54 AM,79.0,71.1,77,29.90,8.0,South,9.2,-,N/A,,Mostly Cloudy,190,2013-09-09 14:54:00
10:54 AM,82.0,72.0,71,29.88,9.0,South,9.2,-,N/A,,Mostly Cloudy,170,2013-09-09 15:54:00
11:17 AM,82.4,71.6,70,29.90,10.0,South,6.9,-,N/A,,Scattered Clouds,170,2013-09-09 16:17:00
11:54 AM,84.9,73.0,67,29.88,10.0,South,10.4,-,N/A,,Scattered Clouds,180,2013-09-09 16:54:00
12:54 PM,89.1,73.0,59,29.86,10.0,South,12.7,-,N/A,,Scattered Clouds,190,2013-09-09 17:54:00
1:54 PM,91.0,73.0,55,29.85,10.0,South,11.5,-,N/A,,Partly Cloudy,170,2013-09-09 18:54:00
2:54 PM,93.0,73.9,54,29.82,10.0,South,11.5,18.4,N/A,,Partly Cloudy,170,2013-09-09 19:54:00
3:54 PM,93.0,73.9,54,29.81,10.0,South,12.7,-,N/A,,Partly Cloudy,180,2013-09-09 20:54:00
4:54 PM,93.9,73.9,52,29.81,9.0,South,13.8,-,N/A,,Clear,180,2013-09-09 21:54:00
5:54 PM,91.9,73.9,55,29.81,10.0,South,12.7,-,N/A,,Clear,180,2013-09-09 22:54:00
6:54 PM,88.0,73.9,63,29.82,10.0,South,10.4,-,N/A,,Partly Cloudy,180,2013-09-09 23:54:00
7:54 PM,82.9,73.0,72,29.83,10.0,South,8.1,-,N/A,,Scattered Clouds,190,2013-09-10 00:54:00
8:54 PM,84.0,71.1,65,29.84,10.0,SSW,10.4,-,N/A,,Scattered Clouds,200,2013-09-10 01:54:00
9:54 PM,82.0,71.1,69,29.85,10.0,SSW,9.2,-,N/A,,Scattered Clouds,200,2013-09-10 02:54:00
10:54 PM,80.1,71.1,74,29.86,10.0,SSW,8.1,-,N/A,,Scattered Clouds,200,2013-09-10 03:54:00
11:54 PM,82.0,68.0,62,29.87,10.0,SSW,9.2,-,N/A,,Partly Cloudy,210,2013-09-10 04:54:00